Overview Statistics Trail Chart Weather Telemetry Raw packets
 

This is the latest recevied weather packets stored in our database for station/object KK7MLS-13. If no packets are shown the sender has not sent any weather packets the latest 10 day(s).

<< 46 47 48 49 50 51 52 >>
Time Temp. Humidity Pressure Rain* Wind** Luminosity Snow
1788365882 17.78° C 68% 1007.1 hPa 0 mm - 62 W/m² -
1788365578 17.22° C 66% 1007.1 hPa 0 mm - 56 W/m² -
1788365274 17.22° C 66% 1007.3 hPa 0 mm - 62 W/m² -
1788364969 17.22° C 67% 1007.1 hPa 0 mm - 49 W/m² -
1788364667 17.22° C 67% 1006.9 hPa 0 mm - 52 W/m² -
1788364366 17.78° C 67% 1007.1 hPa 0 mm - 48 W/m² -
1788364061 17.22° C 67% 1007.2 hPa 0 mm - 61 W/m² -
1788363757 17.22° C 68% 1007.3 hPa 0 mm - 83 W/m² -
1788363455 17.22° C 67% 1007.3 hPa 0 mm - 89 W/m² -
1788363155 16.67° C 69% 1007.3 hPa 0 mm - 74 W/m² -
1788362852 16.67° C 69% 1007.5 hPa 0 mm - 62 W/m² -
1788362547 16.11° C 71% 1007.6 hPa 0 mm - 52 W/m² -
1788362243 16.11° C 72% 1007.6 hPa 0 mm - 42 W/m² -
1788361943 16.11° C 73% 1007.8 hPa 0 mm - 42 W/m² -
1788361643 16.11° C 73% 1007.5 hPa 0 mm - 32 W/m² -
1788361339 16.11° C 74% 1007.8 hPa 0 mm - 36 W/m² -
1788361038 16.11° C 74% 1007.8 hPa 0 mm - 51 W/m² -
1788360733 16.11° C 74% 1007.7 hPa 0 mm - 38 W/m² -
1788360429 16.11° C 74% 1008.1 hPa 0 mm - 23 W/m² -
1788360124 16.11° C 74% 1007.8 hPa 0 mm - 25 W/m² -
1788359819 15.56° C 75% 1008 hPa 0 mm - 27 W/m² -
1788359514 15.56° C 74% 1007.9 hPa 0 mm - 28 W/m² -
1788359210 15.56° C 75% 1008 hPa 0 mm - 24 W/m² -
1788358908 15.56° C 75% 1008.1 hPa 0 mm - 18 W/m² -
1788358605 15.56° C 75% 1008.2 hPa 0 mm - 18 W/m² -

* Rain latest hour (hover to see other rain measurements)
** Current wind speed in m/s (hover to see current wind gust speed)